Regional Weather Roundup
Issued by NWS Kansas City/Pleasant Hill, MO

Home | Current Version | Previous Version | Text Only | Print | Product List | Glossary On
Versions: 1 2 3 4 5 6 7 8 9 10 11 12 13 14 15 16 17 18 19 20 21 22 23 24 25 26 27 28 29 30 31 32 33 34 35 36 37 38 39 40 41 42 43 44 45 46 47 48 49 50
000
ASUS43 KEAX 242210
RWREAX

WEATHER ROUNDUP FOR EASTERN KANSAS AND NORTHWEST MISSOURI
NATIONAL WEATHER SERVICE KANSAS CITY/PLEASANT HILL MO
500 PM CDT SAT SEP 24 2016

KSZ040-057-103>105-MOZ028-029-037-043-242300-
...KANSAS CITY METROPOLITAN AREA...

CITY           SKY/WX    TMP DP  RH WIND       PRES   REMARKS
K.C. INTL      MOSUNNY   86  68  54 S16       29.93F
K.C. DOWNTOWN  MOSUNNY   89  68  49 S17G23    29.92S HX  93
LEES SUMMIT    MOSUNNY   88  70  55 SE15      29.96R HX  93
OLATHE - IXD   MOSUNNY   87  70  56 SE17      29.93F HX  92
OLATHE - OJC   SUNNY     86  68  54 S15G23    29.94S
LAWRENCE       PTSUNNY   89  70  53 SE21G26   29.90F HX  94

$$

MOZ001>008-011>017-020>025-030>033-038>040-044>046-053-054-242300-
...NORTHERN AND CENTRAL MISSOURI...

CITY           SKY/WX    TMP DP  RH WIND       PRES   REMARKS
ST. JOSEPH     MOSUNNY   86  69  56 S13G22    29.91F HX  90
MOSBY          PTCLDY    88  68  51 SE8G17    29.94S HX  91
WHITEMAN AFB   PTSUNNY   86  66  50 S9        29.96F
CLINTON        SUNNY     86  72  62 SE3       29.97F HX  92
SEDALIA        CLOUDY    85  72  65 SE7       29.99F HX  91
WARSAW         NOT AVBL
CHILLICOTHE      N/A     86  69  56 S7        29.97R HX  90
KIRKSVILLE     MOSUNNY   86  67  52 SE15      30.00F

$$

MOZ041-047>049-056>058-063>065-088>090-097-242300-
...EASTERN AND SOUTHERN MISSOURI...

CITY           SKY/WX    TMP DP  RH WIND       PRES   REMARKS
ST. LOUIS INTL MOSUNNY   90  61  37 S5        30.03F HX  90
SPIRIT OF STL  SUNNY     88  67  49 VRB5      30.01F HX  91
COLUMBIA       SUNNY     87  69  54 SE12      30.01F HX  91
JEFFERSON CITY PTSUNNY   88  69  53 SE8       29.98F HX  92
ROLLA          SUNNY     86  68  54 SE9       30.02F
OSAGE BEACH    SUNNY     86  72  62 SE5       30.00F HX  92
SPRINGFIELD    MOSUNNY   86  64  47 S9        29.99F
BRANSON        MOSUNNY   88  66  48 SE10      30.01F HX  90
JOPLIN         MOSUNNY   86  69  56 S16       29.97F HX  90
WEST PLAINS    SUNNY     87  64  46 SE7       30.05F

$$

IAZ060-094-KSZ022-034>040-054-083-096-NEZ052-066-093-242300-
...KANSAS...SOUTHEAST NEBRASKA AND IOWA...

CITY           SKY/WX    TMP DP  RH WIND       PRES   REMARKS
TOPEKA         PTSUNNY   87  70  56 S10       29.90R HX  92
MANHATTAN      TSTM      72  70  93 SW15      29.94R FOG
EMPORIA        MOSUNNY   84  69  60 S14       29.89S
CHANUTE        SUNNY     89  70  53 S18G26    29.91F HX  94
WICHITA        CLOUDY    82  71  69 S10       29.88F
OMAHA          LGT RAIN  73  69  87 SE12      29.91F
LINCOLN        LGT RAIN  73  71  93 S7        29.90R
FALLS CITY     TSTM      70  70 100 W13G24    29.95R VSB 3/4
LAMONI         MOSUNNY   86  70  58 SE13G22   29.95F HX  90
DES MOINES     PTSUNNY   87  68  52 SE17      29.93F HX  90

$$




USA.gov is the U.S. government's official web portal to all federal, state and local government web resources and services.